Regional Weather Roundup
Issued by NWS

Home | Current Version | Previous Version | Text Only | Print | Product List | Glossary On
Versions: 1 2 3 4 5 6 7 8 9 10 11 12 13 14 15 16 17 18 19 20 21 22 23 24 25 26 27 28 29 30 31 32 33 34 35 36 37 38 39 40 41 42 43 44 45 46 47 48 49 50
000
ASUS43 KIND 311009
RWRIN

WEATHER ROUNDUP FOR INDIANA
NATIONAL WEATHER SERVICE INDIANAPOLIS IN
500 AM EST SAT JAN 31 2015

NOTE: "FAIR" INDICATES FEW OR NO CLOUDS BELOW 12,000 FEET WITH NO
SIGNIFICANT WEATHER AND/OR OBSTRUCTIONS TO VISIBILITY.

* - STATION DOES NOT REPORT WEATHER SUCH AS PRECIPITATION OR FOG.

+ - STATION NOT QUALITY CONTROLLED BY THE NATIONAL WEATHER SERVICE.
    USE DATA WITH CAUTION...ESPECIALLY DEWPOINT AND RELATIVE
    HUMIDITY OBSERVATIONS.

INZ001>003-010>013-019-020-311100-
NORTHWEST INDIANA

CITY           SKY/WX    TMP DP  RH WIND       PRES   REMARKS
KNOX *+        CLOUDY    23  10  58 S7        30.31S WCI  15
LA PORTE +     CLOUDY    23  20  87 CALM      30.31S
MICHIGAN CITY+ CLOUDY    25  16  68 SW7       30.30F WCI  17
MONTICELLO +   CLOUDY    22  17  83 S3        30.32S
RENSSELAER +   CLOUDY    27  23  86 S7        30.32S WCI  19
VALPARAISO     CLOUDY    23  18  81 S5        30.30F WCI  17

$$

LMZ046-743>745-311100-
SOUTHERN LAKE MICHIGAN

STATION/POSITION TIME  TEMP WIND        PRES
                       AIR  DIR/SP/G
                 (UTC) (F)  (DEG/KT/KT) (MB)
MICHIGAN CITY    1000   25  180/  8/ 10   N/A

$$

INZ004-005-014>016-021>024-311100-
NORTH CENTRAL INDIANA

CITY           SKY/WX    TMP DP  RH WIND       PRES   REMARKS
GOSHEN         PTCLDY    18  13  80 S5        30.30F WCI  11
LOGANSPORT +   CLOUDY    23  19  86 S7        30.33S WCI  15
PERU/GRISSOM   CLOUDY    22  17  83 S6        30.31F WCI  14
ROCHESTER +    MOCLDY    27  21  80 SW6       30.32S WCI  20
SOUTH BEND     NOT AVBL
WARSAW +       PTCLDY    19  16  86 CALM      30.31S

$$

INZ006>009-017-018-025>027-311100-
NORTHEAST INDIANA

CITY           SKY/WX    TMP DP  RH WIND       PRES   REMARKS
ANGOLA *+      CLEAR     10   7  85 CALM      30.29F
AUBURN +       CLEAR     16  12  86 CALM      30.32S
FORT WAYNE     PTCLDY    16  13  88 SW7       30.33F WCI   6
HUNTINGTON +   CLEAR     19  12  76 CALM      30.32S

$$

INZ028-029-035-036-043>045-051>053-311100-
WEST CENTRAL INDIANA

CITY           SKY/WX    TMP DP  RH WIND       PRES   REMARKS
GREENCASTLE +  CLEAR     19  14  79 S5        30.33F WCI  13
LAFAYETTE      MOCLDY    19  16  88 SW3       30.32F
TERRE HAUTE    CLEAR     20  15  81 CALM      30.35F

$$

INZ030>032-037>040-046>048-054>057-064-065-311100-
CENTRAL INDIANA

CITY           SKY/WX    TMP DP  RH WIND       PRES   REMARKS
CP ATTERBURY + CLEAR     18  14  86 CALM      30.36F
FRANKFORT +    CLEAR     21  18  87 S6        30.33F WCI  13
GREENWOOD *+   CLEAR     21  14  73 S6        30.35F WCI  14
INDIANAPOLIS   CLEAR     17  14  88 S6        30.33F WCI   9
-EAGLE CREEK   CLEAR     18  14  84 S3        30.33F
KOKOMO *+      MOCLDY    21  16  79 S8        30.32F WCI  12
MARION +       CLEAR     20  16  83 SW7       30.33F WCI  11
MT COMFORT *+  CLEAR     19  12  73 S6        30.34F WCI  11
SHELBYVILLE    CLEAR     23  16  74 S7        30.35F WCI  15
ZIONSVILLE +   CLEAR     19  15  82 S5        30.33F WCI  13

$$

INZ033-034-041-042-049-050-058-059-311100-
EAST CENTRAL INDIANA

CITY           SKY/WX    TMP DP  RH WIND       PRES   REMARKS
MUNCIE         CLEAR     20  15  81 S7        30.33F WCI  11

$$

INZ060-061-067>069-081>083-085>088-311100-
SOUTHWEST INDIANA

CITY           SKY/WX    TMP DP  RH WIND       PRES   REMARKS
EVANSVILLE     MOCLDY    25  21  85 CALM      30.40F
HUNTINGBURG *+ PTCLDY    21  16  79 E3G26     30.39F
WASHINGTON +   CLEAR     24  19  83 SE3       30.38S

$$

INZ062-063-066-070>080-084-089>092-311100-
SOUTH CENTRAL AND SOUTHEAST INDIANA

CITY           SKY/WX    TMP DP  RH WIND       PRES   REMARKS
BLOOMINGTON    CLEAR     18  14  84 CALM      30.34F
NORTH VERNON + CLEAR     19  19 100 CALM      30.37F
SEYMOUR +      CLEAR     19  18  93 CALM      30.37F

$$



USA.gov is the U.S. government's official web portal to all federal, state and local government web resources and services.